Simultaneous Nadir Overpasses (SNOs) Predictions

Prediction of SNOs between AQUA and METOP-B Satellite Orbit:

Table of predicted SNOs for the next 14.0 days since TLE Epoch: 11/11/2016
Index Date (AQUA) Time (AQUA) Lat,Lon (AQUA) SZA (AQUA ) Date (METOP-B) Time (METOP-B) Lat,Lon (METOP-B) SZA (METOP-B ) Distance(km) Time Diff (sec)
1 11/11/2016 10:52:17 -73.71,-168.71 88.78 11/11/2016 10:51:57 -73.70,-168.67 88.78 1.17 20
2 11/11/2016 11:41:46 73.78, -1.24 91.31 11/11/2016 11:42:36 73.76, -1.21 91.28 2.82 50
3 11/14/2016 05:36:57 73.28, 90.99 91.53 11/14/2016 05:35:48 73.21, 89.29 91.48 55.04 69
4 11/14/2016 06:26:31 -73.72,-102.29 88.03 11/14/2016 06:26:20 -73.70,-102.29 88.05 2.29 11
5 11/14/2016 07:15:59 73.75, 65.28 92.02 11/14/2016 07:16:59 73.74, 65.16 92.02 3.63 60
6 11/17/2016 01:11:18 73.63, 156.70 92.58 11/17/2016 01:10:05 73.55, 156.44 92.51 12.15 73
7 11/17/2016 02:00:46 -73.74, -35.90 87.30 11/17/2016 02:00:43 -73.73, -35.80 87.30 3.36 3
8 11/17/2016 02:50:14 73.78, 131.65 92.76 11/17/2016 02:51:22 73.78, 131.64 92.75 0.52 68
9 11/19/2016 20:45:33 73.67,-136.95 93.29 11/19/2016 20:44:26 73.67,-136.86 93.30 2.91 67
10 11/19/2016 21:35:00 -73.73, 30.57 86.65 11/19/2016 21:35:07 -73.71, 30.57 86.66 1.23 7
11 11/19/2016 22:24:31 73.93,-162.24 93.57 11/19/2016 22:25:42 73.95,-161.53 93.59 21.90 71
12 11/22/2016 16:19:46 73.68, -70.52 93.91 11/22/2016 16:18:49 73.65, -70.51 93.89 3.14 57
13 11/22/2016 17:09:13 -73.73, 97.02 86.04 11/22/2016 17:09:29 -73.74, 97.04 86.02 2.22 16




NCC Satellite Simultaneous Nadir Overpasses (SNOs) Prediction Service
